Terug naar catalogus

STARLINK-35765

ActiefCommunicatieVLEO
NORAD 67041·PAYLOAD·🇺🇸 United States

Gelanceerd Dec 11, 2025 vanaf Cape Canaveral Space Force Station

Loading…

Volgende Passages (komende 24 uur)

TLE

VersSource: CelesTrak SupGP

Epoch: Sep 15, 2026, 02:29 UTC

1 67041C 25294M   26258.10395833 -.00022090  00000+0 -79990-3 0  2584
2 67041  43.0045  48.4177 0001944 269.5708 211.5769 15.27596252    18

Volg STARLINK-35765 in realtime met AllMySat

Download on the App Store